Meteo pe oră la Dabrowka

Astăzi, 11 Aprilie, Duminică

Timp Temperatura Precipitaţii Vânt Presiune Umiditate
00:00 +1°C° 0 mm 3 m/s 751 mmHg 74%
01:00 +1°C° 0 mm 3 m/s 751 mmHg 76%
02:00 +2°C° 0.1 mm 3 m/s 750 mmHg 81%
03:00 +1°C° 0.1 mm 4 m/s 750 mmHg 86%
04:00 +3°C° 0.1 mm 4 m/s 749 mmHg 91%
05:00 +3°C° 0.5 mm 4 m/s 749 mmHg 92%
06:00 +3°C° 0.5 mm 5 m/s 748 mmHg 93%
07:00 +3°C° 0 mm 5 m/s 748 mmHg 94%
08:00 +5°C° 0.2 mm 6 m/s 748 mmHg 88%
09:00 +8°C° 0.2 mm 6 m/s 747 mmHg 81%
10:00 +10°C° 0.2 mm 6 m/s 747 mmHg 75%
11:00 +12°C° 0 mm 7 m/s 747 mmHg 66%
12:00 +15°C° 0 mm 7 m/s 746 mmHg 56%
13:00 +17°C° 0 mm 7 m/s 746 mmHg 46%
14:00 +16°C° 0 mm 6 m/s 746 mmHg 49%
15:00 +16°C° 0 mm 6 m/s 746 mmHg 51%
16:00 +16°C° 0 mm 5 m/s 746 mmHg 54%
17:00 +15°C° 0 mm 5 m/s 746 mmHg 60%
18:00 +13°C° 0 mm 4 m/s 746 mmHg 66%
19:00 +11°C° 0 mm 4 m/s 746 mmHg 72%
20:00 +11°C° 0 mm 4 m/s 746 mmHg 75%
21:00 +10°C° 0 mm 4 m/s 746 mmHg 77%
22:00 +9°C° 0 mm 5 m/s 746 mmHg 80%
23:00 +8°C° 0 mm 4 m/s 746 mmHg 83%

Mâine, 12 Aprilie, Luni

Timp Temperatura Precipitaţii Vânt Presiune Umiditate
00:00 +7°C° 0 mm 4 m/s 747 mmHg 87%
01:00 +6°C° 0 mm 4 m/s 747 mmHg 90%
02:00 +5°C° 0 mm 4 m/s 748 mmHg 90%
03:00 +4°C° 0 mm 4 m/s 748 mmHg 89%
04:00 +4°C° 0 mm 4 m/s 749 mmHg 89%
05:00 +2°C° 0 mm 5 m/s 750 mmHg 87%
06:00 +2°C° 0 mm 5 m/s 750 mmHg 85%
07:00 +2°C° 0 mm 5 m/s 751 mmHg 82%
08:00 +2°C° 0 mm 5 m/s 752 mmHg 77%
09:00 +2°C° 0 mm 5 m/s 752 mmHg 72%
10:00 +3°C° 0 mm 6 m/s 753 mmHg 67%
11:00 +3°C° 0.1 mm 6 m/s 753 mmHg 66%
12:00 +3°C° 0.1 mm 6 m/s 753 mmHg 66%
13:00 +3°C° 0.1 mm 6 m/s 754 mmHg 66%
14:00 +3°C° 0 mm 5 m/s 754 mmHg 63%
15:00 +5°C° 0 mm 5 m/s 754 mmHg 61%
16:00 +5°C° 0 mm 5 m/s 754 mmHg 59%
17:00 +3°C° 0 mm 5 m/s 755 mmHg 61%
18:00 +4°C° 0 mm 4 m/s 755 mmHg 62%
19:00 +3°C° 0 mm 3 m/s 755 mmHg 64%
20:00 +3°C° 0 mm 3 m/s 755 mmHg 65%
21:00 +2°C° 0 mm 3 m/s 756 mmHg 66%
22:00 +3°C° 0 mm 2 m/s 756 mmHg 67%
23:00 +2°C° 0 mm 2 m/s 756 mmHg 69%

Poimâine, 13 Aprilie, Marţi

Timp Temperatura Precipitaţii Vânt Presiune Umiditate
00:00 +2°C° 0 mm 2 m/s 756 mmHg 71%
01:00 +1°C° 0 mm 2 m/s 756 mmHg 72%
02:00 +1°C° 0 mm 2 m/s 756 mmHg 74%
03:00 0°C° 0 mm 3 m/s 756 mmHg 75%
04:00 0°C° 0 mm 3 m/s 757 mmHg 77%
05:00 +1°C° 0 mm 3 m/s 757 mmHg 76%
06:00 +1°C° 0 mm 3 m/s 757 mmHg 75%
07:00 0°C° 0 mm 4 m/s 757 mmHg 74%
08:00 +1°C° 0 mm 4 m/s 757 mmHg 67%
09:00 +3°C° 0 mm 5 m/s 757 mmHg 60%
10:00 +5°C° 0 mm 5 m/s 758 mmHg 54%
11:00 +6°C° 0 mm 5 m/s 758 mmHg 51%
12:00 +7°C° 0 mm 5 m/s 758 mmHg 48%
13:00 +7°C° 0 mm 5 m/s 757 mmHg 46%
14:00 +7°C° 0.1 mm 5 m/s 757 mmHg 48%
15:00 +6°C° 0.1 mm 5 m/s 757 mmHg 51%
16:00 +5°C° 0.1 mm 6 m/s 757 mmHg 54%
17:00 +5°C° 0 mm 4 m/s 757 mmHg 59%
18:00 +4°C° 0 mm 3 m/s 757 mmHg 64%
19:00 +3°C° 0 mm 2 m/s 758 mmHg 69%
20:00 +3°C° 0 mm 2 m/s 758 mmHg 71%
21:00 +3°C° 0 mm 2 m/s 758 mmHg 73%
22:00 +2°C° 0 mm 2 m/s 758 mmHg 75%
23:00 +1°C° 0 mm 3 m/s 758 mmHg 78%

14 Aprilie, Miercuri

Timp Temperatura Precipitaţii Vânt Presiune Umiditate
00:00 +1°C° 0 mm 3 m/s 757 mmHg 81%
01:00 0°C° 0 mm 3 m/s 757 mmHg 85%
02:00 0°C° 0 mm 3 m/s 757 mmHg 87%
03:00 0°C° 0 mm 3 m/s 757 mmHg 90%
04:00 0°C° 0 mm 3 m/s 757 mmHg 93%
05:00 0°C° 0 mm 3 m/s 757 mmHg 89%
06:00 +1°C° 0 mm 3 m/s 757 mmHg 86%
07:00 +2°C° 0 mm 3 m/s 758 mmHg 83%
08:00 +3°C° 0 mm 3 m/s 757 mmHg 74%
09:00 +5°C° 0 mm 3 m/s 757 mmHg 66%
10:00 +6°C° 0 mm 4 m/s 757 mmHg 58%
11:00 +6°C° 0.2 mm 4 m/s 757 mmHg 57%
12:00 +6°C° 0.2 mm 5 m/s 757 mmHg 57%
13:00 +5°C° 0.2 mm 6 m/s 757 mmHg 56%
14:00 +5°C° 0 mm 6 m/s 757 mmHg 56%
15:00 +5°C° 0 mm 6 m/s 757 mmHg 56%
16:00 +4°C° 0 mm 6 m/s 757 mmHg 56%
17:00 +3°C° 0 mm 6 m/s 758 mmHg 61%
18:00 +2°C° 0 mm 5 m/s 758 mmHg 66%
19:00 +1°C° 0 mm 5 m/s 758 mmHg 71%
20:00 +1°C° 0 mm 4 m/s 758 mmHg 71%
21:00 0°C° 0 mm 4 m/s 758 mmHg 71%
22:00 0°C° 0 mm 4 m/s 758 mmHg 71%
23:00 0°C° 0 mm 4 m/s 758 mmHg 71%

15 Aprilie, Joi

Timp Temperatura Precipitaţii Vânt Presiune Umiditate
00:00 0°C° 0 mm 4 m/s 758 mmHg 71%
01:00 -1°C° 0 mm 5 m/s 758 mmHg 72%
02:00 0°C° 0 mm 5 m/s 758 mmHg 72%
03:00 0°C° 0 mm 5 m/s 758 mmHg 72%
04:00 0°C° 0 mm 5 m/s 758 mmHg 73%
05:00 0°C° 0 mm 5 m/s 758 mmHg 72%
06:00 -1°C° 0 mm 6 m/s 758 mmHg 71%
07:00 +1°C° 0 mm 6 m/s 758 mmHg 70%
08:00 +2°C° 0 mm 6 m/s 758 mmHg 65%
09:00 +3°C° 0 mm 6 m/s 759 mmHg 61%
10:00 +3°C° 0 mm 7 m/s 759 mmHg 57%
11:00 +4°C° 0 mm 7 m/s 758 mmHg 54%
12:00 +5°C° 0 mm 7 m/s 758 mmHg 52%
13:00 +5°C° 0 mm 8 m/s 758 mmHg 49%
14:00 +5°C° 0 mm 8 m/s 758 mmHg 51%
15:00 +5°C° 0 mm 8 m/s 758 mmHg 52%
16:00 +5°C° 0 mm 8 m/s 758 mmHg 53%
17:00 +4°C° 0 mm 7 m/s 758 mmHg 60%
18:00 +3°C° 0 mm 7 m/s 759 mmHg 66%
19:00 +2°C° 0 mm 6 m/s 759 mmHg 72%
20:00 +1°C° 0 mm 6 m/s 759 mmHg 77%
21:00 +1°C° 0 mm 5 m/s 759 mmHg 81%
22:00 0°C° 0 mm 5 m/s 759 mmHg 86%
23:00 0°C° 0 mm 5 m/s 759 mmHg 88%

16 Aprilie, Vineri

Timp Temperatura Precipitaţii Vânt Presiune Umiditate
00:00 -1°C° 0 mm 4 m/s 759 mmHg 91%
01:00 -1°C° 0 mm 4 m/s 759 mmHg 94%
02:00 -1°C° 0 mm 4 m/s 759 mmHg 94%
03:00 -1°C° 0 mm 4 m/s 759 mmHg 95%
04:00 -1°C° 0 mm 4 m/s 759 mmHg 96%
05:00 0°C° 0 mm 4 m/s 759 mmHg 92%
06:00 +1°C° 0 mm 5 m/s 759 mmHg 87%
07:00 +1°C° 0 mm 5 m/s 759 mmHg 83%
08:00 +3°C° 0 mm 5 m/s 759 mmHg 74%
09:00 +4°C° 0 mm 6 m/s 759 mmHg 65%
10:00 +5°C° 0 mm 6 m/s 759 mmHg 56%
11:00 +7°C° 0 mm 6 m/s 759 mmHg 57%
12:00 +7°C° 0 mm 6 m/s 759 mmHg 58%
13:00 +8°C° 0 mm 6 m/s 759 mmHg 59%
14:00 +8°C° 0 mm 5 m/s 759 mmHg 61%
15:00 +7°C° 0 mm 5 m/s 759 mmHg 63%
16:00 +7°C° 0 mm 5 m/s 759 mmHg 65%
17:00 +6°C° 0 mm 5 m/s 759 mmHg 68%
18:00 +5°C° 0 mm 5 m/s 760 mmHg 70%
19:00 +5°C° 0 mm 4 m/s 760 mmHg 72%
20:00 +4°C° 0.1 mm 4 m/s 760 mmHg 76%
21:00 +4°C° 0.1 mm 4 m/s 760 mmHg 80%
22:00 +4°C° 0.1 mm 4 m/s 760 mmHg 84%
23:00 +4°C° 0.3 mm 3 m/s 760 mmHg 86%
Arată mai mult

Formular de consimțământ

Meteoprog și furnizorii noștri de servicii pot stoca și accesa date personale, precum cookies, identificatori de dispozitiv sau alte tehnologii similare pe dispozitivul dumneavoastră și procesa astfel de date pentru a personaliza conținutul și reclamele, dar și pentru a oferi caracteristici de social media și pentru a analiza traficul.

  • Stocarea și/sau accesarea informațiilor pe dispozitivul dumneavoastră

    Cookies, identificatori de dispozitiv sau alte informații pot fi stocate sau accesate pe dispozitiv în scopurile indicate mai sus.

  • Reclame și conținut personalizat, evaluarea reclamelor și a conținutului, informații despre audiențe și dezvoltarea produselor

    Reclamele și conținutul pot fi personalizate pe baza unui profil. Pot fi adăugate date suplimentare pentru a personaliza mai bine reclamele și conținutul. Performanța reclamelor și conținutului poate fi măsurată. Pot fi obținute informații despre utilizatorii care au văzut reclamele și conținutul. Aceste date pot fi utilizate pentru a dezvolta sau îmbunătăți experiența utilizatorilor, sistemele și software-ul.

Dând clic pe ‘Sunt de acord’, permiteți utilizarea cookie-urilor menționate, a identificatorilor de dispozitiv, balizelor web sau altor tehnologii similare. Setările pot fi modificate din browser-ul dispozitivului dumneavoastră.

În anumite scopuri, interesele legitime pot prima asupra consimțământului. Puteți citi mai multe informații în acest sens în Politica privind Confidențialitatea Datelor și Cookie.